カタログに戻る

STARLINK-36369

運用中通信SSO
NORAD 67723·PAYLOAD·🇺🇸 United States

打ち上げ Feb 11, 2026 から Vandenberg Space Force Base

Loading…

次のパス (今後24時間)

TLE

最新Source: CelesTrak SupGP

元期: Sep 15, 2026, 03:04 UTC

1 67723C 26026C   26258.12826389  .00005947  00000+0  18459-3 0  2585
2 67723  97.2851 309.9750 0001316  83.5426 267.6636 15.33440569    18

AllMySatでSTARLINK-36369をリアルタイム追跡

Download on the App Store